[[{"header":{"parameterUnit":"m.s-1","parameterCategory":1,"la1":30.2991,"la2":30.254,"lo1":-89.0895,"lo2":-89.0444,"dy":0.0017,"dx":0.0017,"nx":28,"ny":28,"refTime":"2025-02-10T03:00:00:Z","depth":0,"parameterNumber":2,"parameterNumberName":"U-component_of_WINDS"},"data":[0,0,0,0,0,0,0,0,0,0,0,0,0,0,0,0,0,0,0,0,0,0,0,0,0,0,0,0,0,0,0,0,0,0,0,0,0,0,0,0,0,0,0,0,0,0,0,0,0,0,0,0,0,0,0,0,0,0,-2.9896,-2.9897,0,-2.9914,-2.9915,-2.9915,-2.9822,-2.982,-2.9817,-2.9815,-2.9835,-2.9838,-2.9841,0,0,0,0,0,0,0,0,0,0,0,0,0,-2.9784,-2.9787,-2.9896,-2.9897,-2.9897,-2.9914,-2.9915,-2.9915,-2.9823,-2.982,-2.9816,-2.9813,-2.9834,-2.9838,-2.9841,0,0,0,0,0,0,0,0,0,0,0,0,0,-2.9821,-2.9787,-2.9896,-2.9853,-2.9849,-2.9914,-2.9915,-2.9915,-2.9824,-2.982,-2.9816,-2.9812,-2.9833,-2.9837,-2.9842,-2.995,0,0,-2.9856,-2.9858,0,0,0,0,0,0,0,0,-2.9819,-2.9825,-2.9859,-2.9856,-2.9852,-2.9862,-2.9882,-2.9927,-2.9825,-2.9834,-2.9815,-2.981,-2.9847,-2.9851,-2.9863,-2.9951,-2.9952,-2.9856,-2.9859,-2.9861,-2.9862,0,0,0,0,0,0,0,-2.9816,-2.9824,-2.9904,-2.986,-2.9856,-2.9833,-2.9834,-2.989,-2.9863,-2.9832,-2.9826,-2.9829,-2.9845,-2.9859,-2.9863,-2.9952,-2.9856,-2.986,-2.9863,-2.9865,-3.013,-3.0135,0,0,0,0,0,0,-2.9819,-2.9822,-2.9903,-2.9904,-2.9825,-2.9839,-2.9839,-2.9863,-2.9862,-2.9858,-2.9832,-2.9825,-2.9853,-2.9857,-2.9863,-2.999,-2.9861,-2.9865,-2.9868,-3.0126,-3.0131,-3.0136,0,0,0,0,0,0,-2.9817,-2.9827,-2.9902,-2.9861,-2.9869,-2.9845,-2.9872,-2.9865,-2.9879,-2.9862,-2.9857,-2.9852,-2.985,-2.9856,-2.9929,-2.999,-2.9867,-2.9871,-3.0121,-3.0128,-3.0134,-3.0246,0,0,0,0,0,0,-2.9814,-2.9827,-2.9868,-2.9863,-2.9872,-2.9968,-2.9876,-2.9869,-2.9887,-2.9877,-2.9878,-2.9875,-2.9847,-2.9923,-2.9934,-2.9994,-2.9875,-3.0115,-3.0124,-3.0132,-3.0237,-3.0255,-3.0271,0,0,0,0,0,-2.9811,-2.9899,-2.987,-2.9881,-2.9922,-2.9972,-2.9977,-2.9943,-2.9892,-2.9933,-2.9922,-2.9875,-2.9981,-2.9931,-2.9942,-3.0005,-3.0112,-3.0122,-3.0131,-3.0229,-3.0252,-3.0271,0,0,0,0,0,0,-2.9912,-2.9897,-2.9866,-2.9955,-2.9965,-2.9956,-3.0007,-2.9968,-2.9993,-2.9983,-2.994,-2.9941,-3.0021,-3.002,-2.9964,-3.011,-3.0038,-3.005,-3.0108,-3.013,-3.0147,-3.0146,-2.9878,0,0,0,0,0,-2.9945,-2.9986,-2.9971,-3.0051,-3.0058,-3.0032,-3.0052,-3.0025,-3.0034,-3.0038,-3.0032,-3.0044,-3.0079,-3.0104,-3.0136,-3.0235,-3.0235,-3.0284,-3.0301,-3.0316,-3.0328,-3.0381,-3.0403,-3.0168,-3.0168,-3.0168,0,0,-3.0013,-3.001,-3.0039,-3.0071,-3.0076,-3.0121,-3.0036,-3.0086,-3.0119,-3.0046,-3.0114,-3.011,-3.012,-3.0207,-3.0245,-3.0208,-3.0392,-3.0328,-3.034,-3.0344,-3.0394,-3.0416,-3.0436,-3.0175,-3.0174,-3.0172,0,0,-3.016,-3.0161,-3.0229,-3.0235,-3.0243,-3.0225,-3.0241,-3.0238,-3.0233,-3.03,-3.0246,-3.0285,-3.0347,-3.0357,-3.037,-3.052,-3.0479,-3.0532,-3.0624,-3.0676,-3.0695,-3.0711,-3.0767,-3.0787,-3.0543,-3.0544,-3.0544,0,-3.0244,-3.0309,-3.0268,-3.0323,-3.0339,-3.0274,-3.0342,-3.035,-3.0369,-3.0382,-3.0341,-3.0418,-3.042,-3.0509,-3.0545,-3.0557,-3.0576,-3.0533,-3.0695,-3.0711,-3.0726,-3.0778,-3.0799,-3.055,-3.0549,-3.0549,-3.0548,0,-3.0412,-3.0458,-3.0511,-3.053,-3.0552,-3.0614,-3.0583,-3.0611,-3.0581,-3.0568,-3.0638,-3.0637,-3.0669,-3.0687,-3.0659,-3.0772,-3.075,-3.0702,-3.0629,-3.0756,-3.0804,-3.0824,-3.056,-3.0557,-3.0555,-3.0554,0,0,-3.0626,-3.0621,-3.0642,-3.065,-3.0654,-3.0689,-3.0747,-3.0777,-3.0802,-3.0816,-3.0865,-3.0919,-3.0875,-3.089,-3.0862,-3.0909,-3.103,-3.0855,-3.0855,-3.089,-3.1156,-3.1194,-3.1217,-3.1001,-3.1005,-3.1007,-3.1156,0,-3.0771,-3.087,-3.0836,-3.0937,-3.0979,-3.0917,-3.0968,-3.0977,-3.0965,-3.1,-3.0987,-3.1027,-3.0965,-3.0974,-3.1017,-3.1006,-3.1083,-3.0994,-3.1048,-3.105,-3.1049,-3.1242,-3.1282,-3.1422,-3.1175,-3.1178,-3.118,0,-3.0955,-3.0976,-3.1082,-3.1079,-3.1096,-3.1142,-3.1167,-3.12,-3.1208,-3.1197,-3.1214,-3.1176,-3.1233,-3.1159,-3.1239,-3.1179,-3.1198,-3.1197,-3.1201,-3.1206,-3.1124,-3.1255,-3.1466,-3.1488,-3.1209,-3.1207,-3.1205,0,-3.1102,-3.1158,-3.1228,-3.1237,-3.1235,-3.1269,-3.127,-3.1274,-3.1294,-3.1316,-3.1329,-3.1357,-3.1374,-3.1397,-3.1368,-3.1316,-3.1453,-3.1375,-3.1446,-3.1447,-3.1479,-3.1478,-3.1699,-3.1489,-3.1488,-3.1488,-3.1488,0,-3.1269,-3.1337,-3.1295,-3.1338,-3.1412,-3.1372,-3.1446,-3.144,-3.1444,-3.1487,-3.1434,-3.1475,-3.1433,-3.147,-3.1448,-3.1518,-3.1525,-3.1519,-3.1513,-3.1525,-3.1526,-3.1539,-3.1529,-3.1494,-3.1492,-3.1491,-3.149,0,-3.1448,-3.1422,-3.1495,-3.1486,-3.1486,-3.1541,-3.1534,-3.1575,-3.1559,-3.1613,-3.1623,-3.16,-3.164,-3.1613,-3.1655,-3.1639,-3.1732,-3.1711,-3.173,-3.1725,-3.1798,-3.1792,-3.2036,-3.2067,-3.1835,-3.1837,-3.1839,0,-3.1557,-3.1608,-3.1605,-3.1629,-3.1633,-3.1672,-3.1693,-3.1654,-3.1678,-3.1691,-3.1731,-3.1767,-3.1794,-3.1862,-3.1849,-3.1881,-3.1861,-3.1944,-3.1866,-3.1877,-3.1865,-3.1863,-3.1869,-3.1961,-3.1964,-3.1966,-3.1968,0,-3.1755,-3.174,-3.1771,-3.1798,-3.1824,-3.1843,-3.1858,-3.1881,-3.1842,-3.1872,-3.1913,-3.1934,-3.1975,-3.2013,-3.2039,-3.204,-3.1999,-3.1992,-3.2011,-3.2025,-3.2035,-3.2032,-3.1775,-3.1988,-3.1986,-3.1984,-3.1983,-3.1982,-3.1904,-3.1946,-3.1951,-3.1987,-3.1995,-3.201,-3.2048,-3.2037,-3.207,-3.2101,-3.2076,-3.2126,-3.2133,-3.2163,-3.217,-3.2208,-3.2175,-3.2201,-3.2208,-3.2216,-3.2227,-3.2027,-3.2213,-3.2212,-3.2212,-3.2211,-3.2211,0,-3.2101,-3.2101,-3.2134,-3.2157,-3.2186,-3.2143,-3.2157,-3.2185,-3.2229,-3.2238,-3.2266,-3.2314,-3.2349,-3.2339,-3.2371,-3.2404,-3.2386,-3.2414,-3.2412,-3.2414,-3.2254,-3.2236,-3.2428,-3.2428,-3.2428,-3.2428,-3.2428,-3.2428,-3.2207,-3.2277,-3.2262,-3.2335,-3.2334,-3.2382,-3.2394,-3.2408,-3.2416,-3.2471,-3.25,-3.2493,-3.2495,-3.2526,-3.2558,-3.2553,-3.2569,-3.2604,-3.2594,-3.2446,-3.2424,-3.2404,-3.2387,-3.2607,-3.2608,-3.275,-3.2751,-3.2752]},{"header":{"parameterUnit":"m.s-1","parameterCategory":1,"la1":30.2991,"la2":30.254,"lo1":-89.0895,"lo2":-89.0444,"dy":0.0017,"dx":0.0017,"nx":28,"ny":28,"refTime":"2025-02-10T03:00:00:Z","depth":0,"parameterNumber":3,"parameterNumberName":"V-component_of_WINDS"},"data":[0,0,0,0,0,0,0,0,0,0,0,0,0,0,0,0,0,0,0,0,0,0,0,0,0,0,0,0,0,0,0,0,0,0,0,0,0,0,0,0,0,0,0,0,0,0,0,0,0,0,0,0,0,0,0,0,0,0,-2.3024,-2.3024,0,-2.3027,-2.3027,-2.3027,-2.2992,-2.2991,-2.299,-2.2989,-2.2992,-2.2993,-2.2994,0,0,0,0,0,0,0,0,0,0,0,0,0,-2.2986,-2.2986,-2.3024,-2.3024,-2.3024,-2.3027,-2.3027,-2.3027,-2.2992,-2.2991,-2.299,-2.2989,-2.2992,-2.2993,-2.2994,0,0,0,0,0,0,0,0,0,0,0,0,0,-2.2997,-2.2987,-2.3024,-2.3007,-2.3005,-2.3027,-2.3027,-2.3027,-2.2992,-2.2991,-2.299,-2.2988,-2.2992,-2.2993,-2.2995,-2.3032,0,0,-2.2999,-2.3,0,0,0,0,0,0,0,0,-2.2996,-2.2998,-2.3009,-2.3008,-2.3006,-2.3008,-2.3015,-2.3029,-2.2993,-2.2997,-2.2989,-2.2988,-2.2999,-2.2999,-2.3003,-2.3033,-2.3033,-2.2999,-2.3,-2.3001,-2.3001,0,0,0,0,0,0,0,-2.2996,-2.2998,-2.3025,-2.3009,-2.3008,-2.2998,-2.2999,-2.3017,-2.3006,-2.2997,-2.2994,-2.2995,-2.2998,-2.3002,-2.3003,-2.3033,-2.2999,-2.3,-2.3001,-2.3002,-2.3093,-2.3094,0,0,0,0,0,0,-2.2997,-2.2998,-2.3025,-2.3025,-2.2998,-2.3,-2.3,-2.3009,-2.3006,-2.3004,-2.2996,-2.2994,-2.3,-2.3001,-2.3003,-2.3047,-2.3001,-2.3002,-2.3003,-2.3091,-2.3093,-2.3095,0,0,0,0,0,0,-2.2996,-2.3,-2.3025,-2.3011,-2.3013,-2.3003,-2.3012,-2.3009,-2.3014,-2.3005,-2.3003,-2.3003,-2.2999,-2.3001,-2.3025,-2.3046,-2.3003,-2.3004,-2.3089,-2.3092,-2.3094,-2.3135,0,0,0,0,0,0,-2.2996,-2.3,-2.3015,-2.3011,-2.3014,-2.3047,-2.3013,-2.3011,-2.3016,-2.3013,-2.3011,-2.3009,-2.2998,-2.3023,-2.3027,-2.3048,-2.3005,-2.3087,-2.309,-2.3093,-2.3132,-2.3138,-2.3144,0,0,0,0,0,-2.2994,-2.3026,-2.3016,-2.3019,-2.3032,-2.3049,-2.305,-2.3037,-2.3018,-2.3033,-2.3027,-2.3009,-2.3043,-2.3026,-2.303,-2.3051,-2.3086,-2.3089,-2.3093,-2.3129,-2.3137,-2.3144,0,0,0,0,0,0,-2.3033,-2.3025,-2.3014,-2.3045,-2.3048,-2.3043,-2.3061,-2.3046,-2.3054,-2.305,-2.3032,-2.3032,-2.3059,-2.3058,-2.3038,-2.3087,-2.3061,-2.3066,-2.3088,-2.3095,-2.3101,-2.3101,-2.3006,0,0,0,0,0,-2.3045,-2.3059,-2.3052,-2.3081,-2.3082,-2.3071,-2.3078,-2.3067,-2.3069,-2.307,-2.3066,-2.3068,-2.3079,-2.3087,-2.3097,-2.3131,-2.313,-2.3148,-2.3154,-2.3159,-2.3163,-2.318,-2.3188,-2.3106,-2.3106,-2.3106,0,0,-2.307,-2.3068,-2.3078,-2.3088,-2.3089,-2.3104,-2.3072,-2.309,-2.31,-2.3072,-2.3095,-2.3092,-2.3094,-2.3123,-2.3136,-2.3122,-2.3185,-2.3163,-2.3168,-2.3169,-2.3185,-2.3192,-2.3199,-2.3108,-2.3108,-2.3107,0,0,-2.3123,-2.3124,-2.3147,-2.3148,-2.3149,-2.3142,-2.3147,-2.3144,-2.3141,-2.3164,-2.3143,-2.3155,-2.3175,-2.3176,-2.318,-2.3233,-2.3216,-2.3236,-2.3269,-2.3286,-2.3292,-2.3298,-2.3317,-2.3324,-2.324,-2.324,-2.324,0,-2.3155,-2.3176,-2.3161,-2.3179,-2.3184,-2.3159,-2.3183,-2.3184,-2.3189,-2.3193,-2.3178,-2.3201,-2.3201,-2.3229,-2.3242,-2.3246,-2.3251,-2.3237,-2.3293,-2.3298,-2.3303,-2.3321,-2.3328,-2.3243,-2.3243,-2.3242,-2.3242,0,-2.3214,-2.323,-2.3248,-2.3253,-2.326,-2.3281,-2.3268,-2.3277,-2.3265,-2.3259,-2.3282,-2.328,-2.3288,-2.3294,-2.3283,-2.3321,-2.3313,-2.3296,-2.3269,-2.3314,-2.333,-2.3337,-2.3246,-2.3245,-2.3245,-2.3244,0,0,-2.3293,-2.3288,-2.3295,-2.3297,-2.3296,-2.3307,-2.3326,-2.3335,-2.3342,-2.3346,-2.3361,-2.3378,-2.3362,-2.3366,-2.3354,-2.3369,-2.3411,-2.335,-2.335,-2.3361,-2.3452,-2.3466,-2.3474,-2.34,-2.3401,-2.3402,-2.3452,0,-2.3345,-2.3378,-2.3364,-2.3398,-2.3411,-2.3388,-2.3404,-2.3405,-2.34,-2.341,-2.3403,-2.3416,-2.3393,-2.3395,-2.3409,-2.3403,-2.3429,-2.3399,-2.3414,-2.3415,-2.3415,-2.3482,-2.3496,-2.3544,-2.3458,-2.346,-2.346,0,-2.341,-2.3416,-2.3452,-2.3447,-2.3452,-2.3468,-2.3474,-2.3484,-2.3484,-2.3479,-2.3483,-2.3468,-2.3486,-2.346,-2.3484,-2.3464,-2.3469,-2.3467,-2.3469,-2.347,-2.344,-2.3485,-2.3558,-2.3566,-2.347,-2.3469,-2.3469,0,-2.3464,-2.348,-2.3503,-2.3505,-2.3501,-2.3512,-2.3511,-2.351,-2.3515,-2.3521,-2.3524,-2.3531,-2.3535,-2.3541,-2.3529,-2.3511,-2.3555,-2.3527,-2.3551,-2.3551,-2.3561,-2.3561,-2.3637,-2.3565,-2.3565,-2.3564,-2.3564,0,-2.3523,-2.3546,-2.3527,-2.3542,-2.3566,-2.3549,-2.3574,-2.357,-2.3569,-2.3581,-2.3561,-2.3573,-2.3556,-2.3566,-2.3557,-2.3578,-2.358,-2.3576,-2.3573,-2.3578,-2.3579,-2.3581,-2.3578,-2.3566,-2.3566,-2.3566,-2.3565,0,-2.3587,-2.3576,-2.3599,-2.3593,-2.3592,-2.361,-2.3604,-2.3617,-2.361,-2.3626,-2.3629,-2.3617,-2.3629,-2.3616,-2.3627,-2.362,-2.3649,-2.3641,-2.3649,-2.3647,-2.3671,-2.3669,-2.3751,-2.3761,-2.3683,-2.3684,-2.3684,0,-2.3626,-2.3643,-2.3638,-2.3645,-2.3645,-2.3656,-2.3662,-2.3646,-2.3652,-2.3653,-2.3666,-2.3675,-2.3682,-2.3701,-2.3693,-2.3701,-2.3693,-2.3722,-2.3694,-2.3698,-2.3694,-2.3693,-2.3694,-2.3727,-2.3728,-2.3729,-2.373,0,-2.3696,-2.3689,-2.3698,-2.3704,-2.3711,-2.3716,-2.3718,-2.3725,-2.3709,-2.3717,-2.3728,-2.3733,-2.3743,-2.3753,-2.3758,-2.3757,-2.3741,-2.3738,-2.3744,-2.3749,-2.3753,-2.3751,-2.3664,-2.3736,-2.3736,-2.3735,-2.3735,-2.3735,-2.3749,-2.3762,-2.376,-2.377,-2.377,-2.3773,-2.3785,-2.3778,-2.3787,-2.3794,-2.3784,-2.3798,-2.3797,-2.3803,-2.3803,-2.3813,-2.3801,-2.3809,-2.3812,-2.3814,-2.3817,-2.3751,-2.3814,-2.3814,-2.3814,-2.3813,-2.3813,0,-2.3817,-2.3815,-2.3824,-2.3828,-2.3836,-2.382,-2.3821,-2.3829,-2.3841,-2.3842,-2.3849,-2.3861,-2.387,-2.3863,-2.387,-2.388,-2.3873,-2.3882,-2.3881,-2.3881,-2.3828,-2.3822,-2.3888,-2.3888,-2.3888,-2.3888,-2.3888,-2.3888,-2.3854,-2.3875,-2.3868,-2.3889,-2.3887,-2.39,-2.3902,-2.3905,-2.3905,-2.3919,-2.3927,-2.3922,-2.3919,-2.3926,-2.3933,-2.3931,-2.3934,-2.3947,-2.3942,-2.3892,-2.3885,-2.3878,-2.3872,-2.3948,-2.3948,-2.3994,-2.3995,-2.3995]}]]